CAPE
0 0 0 0 0 0 0 0 3 14 0 1 0 0 0 0 0 0 0 3 5 7 6 5 4 10 8 14 5 3 2 3 4 1 2 4 5 7
0 0 0 0 1 1 1 0 0 0 0 0 1 0 0 0 0 0 0 2 3 5 7 8 10 16 6 3 2 2 3 4 3 5 7 6 8 6
0 1 1 1 2 1 0 0 0 0 0 1 2 1 1 1 0 1 1 1 0 3 7 6 6 1 0 0 1 2 3 4 6 5 6 6 6 6
0 0 2 1 2 0 0 0 0 1 0 0 2 2 1 2 1 1 2 1 0 0 2 0 0 0 0 0 0 2 4 5 4 3 5 3 5 6
2 2 1 0 0 0 0 0 0 0 0 0 2 0 0 1 1 0 0 0 0 0 0 0 0 0 0 0 1 4 3 2 2 1 1 2 4 6
0 0 0 0 0 0 0 1 0 0 0 0 0 0 0 0 0 0 0 0 0 0 0 0 0 0 0 0 0 0 0 0 0 0 1 2 3 4
0 0 0 1 2 1 0 0 0 0 0 0 0 0 0 0 0 0 0 0 0 0 0 0 0 0 0 0 0 0 0 0 0 1 4 5 5 8
0 0 0 0 0 1 1 0 0 0 0 0 0 0 0 0 0 0 0 0 0 0 0 0 0 0 0 0 0 0 0 0 0 3 4 5 5 4
0 0 0 0 0 0 0 0 0 0 0 0 0 0 0 0 0 0 0 0 0 0 0 0 0 0 0 0 0 0 0 0 1 2 2 1 2 3
0 0 0 0 0 0 0 0 0 0 0 0 0 0 0 0 0 0 0 0 0 0 0 0 0 0 0 0 0 0 0 0 0 0 0 1 3 1
0 0 0 0 0 1 0 0 0 0 0 0 0 0 1 2 0 0 0 0 0 0 0 0 0 0 0 0 0 0 0 0 0 0 0 1 2 2
0 0 0 0 0 0 0 0 0 0 0 0 0 0 0 0 0 0 0 0 0 0 0 0 0 0 0 0 0 0 0 0 0 0 0 0 2 2
0 0 0 0 0 0 0 0 0 0 0 0 0 0 0 0 0 0 0 0 0 0 0 0 0 0 0 0 0 0 0 0 0 0 0 0 0 1
0 0 0 0 0 0 0 0 1 0 0 0 0 0 0 0 0 0 0 0 0 0 0 0 0 0 0 0 0 0 0 0 0 0 0 0 0 0
0 0 0 0 0 0 0 0 0 0 0 0 0 0 0 0 0 0 0 0 0 0 0 0 0 0 0 0 0 1 1 0 0 0 0 0 0 0
0 0 0 0 0 0 0 0 0 0 0 0 0 0 0 0 0 0 0 0 0 0 1 0 0 0 1 1 0 0 0 0 0 0 0 0 0 0
0 0 0 0 0 0 0 0 0 0 0 0 0 0 0 0 0 0 0 0 0 0 0 0 0 0 0 0 0 0 1 0 0 0 0 0 0 0
0 0 0 0 0 0 0 0 0 0 0 0 0 0 0 0 0 0 0 0 0 0 0 0 0 0 0 0 0 0 0 1 0 0 0 0 1 0
0 0 0 0 0 0 0 0 0 0 0 0 0 0 0 0 0 0 0 0 0 0 0 0 0 0 1 0 0 0 0 0 0 0 0 0 1 0
0 0 0 0 0 0 0 0 0 0 0 0 0 0 0 0 0 0 0 0 0 0 0 0 0 0 1 0 1 0 0 0 0 0 0 0 0 0
0 0 0 0 0 0 0 0 0 0 0 0 0 0 0 0 0 0 0 0 0 0 0 0 0 0 0 0 0 0 0 0 0 0 0 0 0 0
0 0 0 0 0 0 0 0 0 0 0 0 0 0 0 0 0 0 0 0 0 0 0 0 0 0 0 2 2 0 0 0 0 0 0 0 0 1
0 0 0 0 0 0 0 0 0 0 0 0 0 0 0 0 0 0 0 0 0 0 0 0 0 0 2 0 0 0 0 0 0 0 0 0 0 0
CIN
0 0 0 0 0 0 0 0 -66 -38 0 0 0 0 0 0 0 0 0 0 0 0 0 0 0 0 0 0 0 -1 0 -1 -1 0 -1 0 -1 -1
0 0 0 0 0 0 0 0 0 0 0 0 0 0 0 0 0 0 0 0 0 0 0 0 0 0 0 0 -1 0 -1 -1 0 0 0 -1 -1 0
0 0 0 0 0 0 0 0 0 0 0 0 0 0 0 0 0 0 0 0 0 0 0 0 0 0 -1 0 -1 -1 -1 -1 -1 0 0 -1 -1 -1
0 0 0 0 0 0 0 0 0 0 0 0 0 0 0 0 0 0 0 0 0 0 0 0 0 0 0 0 0 0 -1 0 0 0 -1 0 -1 -1
0 0 0 0 0 0 0 0 0 0 0 0 0 0 0 0 0 0 0 0 0 0 0 0 0 0 0 0 0 0 0 0 0 0 0 0 -1 -1
0 0 0 0 0 0 0 0 0 0 0 0 0 0 0 0 0 0 0 0 0 0 0 0 0 0 0 0 0 0 0 0 0 0 0 -1 -1 0
0 0 0 0 0 0 0 0 0 0 0 0 0 0 0 0 0 0 0 0 0 0 0 0 0 0 0 0 0 0 0 0 0 0 0 -1 -1 -1
0 0 0 0 0 0 0 0 0 0 0 0 0 0 0 0 0 0 0 0 0 0 0 0 0 0 0 0 0 0 0 0 0 0 0 0 -1 0
0 0 0 0 0 0 0 0 0 0 0 0 0 0 0 0 0 0 0 0 0 0 0 0 0 0 0 0 0 0 0 0 0 0 0 -1 0 0
0 0 0 0 0 0 0 0 0 0 0 0 0 0 0 0 0 0 0 0 0 0 0 0 0 0 0 0 0 0 0 0 0 0 0 0 0 0
0 0 0 0 0 0 0 0 0 0 0 0 0 0 0 0 0 0 0 0 0 0 0 0 0 0 0 0 0 0 0 0 0 0 0 0 0 0
0 0 0 0 0 0 0 0 0 0 0 0 0 0 0 0 0 0 0 0 0 0 0 0 0 0 0 0 0 0 0 0 0 0 0 0 0 0
0 0 0 0 0 0 0 0 0 0 0 0 0 0 0 0 0 0 0 0 0 0 0 0 0 0 0 0 0 0 0 0 0 0 0 0 0 0
0 0 0 0 0 0 0 0 0 0 0 0 0 0 0 0 -1 0 0 0 0 -1 0 0 0 0 0 0 0 0 0 0 0 0 0 0 0 0
0 0 0 0 0 0 0 0 0 0 0 0 0 0 0 0 0 0 0 0 -1 -1 -1 0 0 0 0 0 0 0 0 0 0 0 0 0 0 0
0 0 0 0 0 0 0 0 0 0 0 0 0 0 0 0 0 0 0 0 0 0 -3 -1 0 0 0 0 0 0 0 0 0 0 0 0 0 0
0 0 0 0 0 0 0 0 0 0 0 0 0 0 0 0 0 -2 0 0 0 -1 -1 -1 0 0 0 0 0 0 0 0 0 0 0 0 0 0
0 0 0 0 0 0 0 0 0 0 0 0 0 0 0 0 0 0 0 0 0 0 0 0 -3 0 0 0 0 0 0 0 0 0 0 0 0 0
0 0 0 0 0 0 0 0 0 0 0 0 0 0 0 0 0 0 0 0 0 0 0 0 0 0 0 0 0 0 0 0 0 0 0 0 0 0
0 0 0 0 0 0 0 0 -1 0 0 0 0 0 0 0 0 0 0 0 0 0 0 0 0 0 0 0 0 0 0 0 0 0 0 0 0 -1
0 0 0 0 0 0 0 0 -1 0 0 0 0 0 0 0 0 0 0 0 0 0 0 0 0 0 0 0 0 0 0 0 0 0 0 0 0 -1
0 0 0 0 0 0 0 0 0 -1 -1 0 0 0 0 0 0 0 0 0 0 0 0 0 0 0 0 0 0 0 0 0 0 0 0 -1 0 0
0 0 0 0 0 0 0 0 0 0 0 -1 0 0 0 0 0 0 0 0 0 0 0 0 0 0 0 0 0 0 0 0 0 0 0 0 0 0
Wind_Speed
26 26 26 26 27 25 27 27 32 39 39 33 34 28 26 25 24 20 19 19 19 22 19 21 27 32 24 24 25 25 27 29 30 30 30 30 31 32
27 26 26 25 25 23 21 22 22 28 37 32 32 30 26 20 23 20 20 22 21 19 25 26 24 23 20 23 25 28 28 29 29 28 28 30 30 31
25 25 24 23 22 22 19 20 20 21 23 27 25 25 27 23 19 19 19 18 24 25 24 22 17 19 21 23 25 26 26 26 27 27 29 29 30 31
23 22 21 21 21 20 19 19 20 20 18 21 20 22 24 22 17 18 22 22 20 19 17 18 19 21 22 23 24 24 25 27 28 28 29 28 29 30
21 19 19 19 19 19 19 19 20 19 16 16 22 20 18 17 19 17 18 20 21 18 18 19 20 22 23 26 25 24 24 25 25 26 27 27 28 30
21 21 20 20 19 20 19 18 17 18 18 20 16 16 18 18 17 19 20 19 20 18 19 22 23 24 23 22 22 21 22 24 25 25 25 26 27 28
22 21 21 21 20 20 19 19 19 19 18 18 17 16 17 16 15 15 17 18 20 21 24 22 22 22 22 21 20 22 23 23 23 24 26 27 27 28
21 21 21 22 22 22 20 19 20 19 17 17 17 17 17 17 17 17 19 22 26 21 22 24 22 21 19 20 21 22 23 24 25 25 26 27 27 29
22 22 22 22 22 22 21 20 21 20 19 18 17 17 18 18 18 19 21 22 23 21 23 24 19 21 20 22 24 24 24 23 23 24 27 28 29 30
22 22 21 22 22 22 21 20 21 21 19 19 18 18 17 17 18 19 20 21 22 23 18 21 20 22 23 25 23 20 19 23 26 28 29 29 30 31
22 22 22 23 23 23 23 22 20 20 21 21 20 19 20 18 17 17 20 21 22 20 18 19 21 25 24 22 20 19 25 29 29 29 31 33 33 33
21 22 23 23 24 23 22 21 20 19 21 21 21 20 20 19 19 17 17 20 20 22 17 21 22 24 25 21 19 28 30 28 30 32 34 33 32 30
21 22 22 23 24 23 21 20 20 19 20 21 20 19 19 19 20 20 18 19 20 20 19 22 22 25 23 26 26 26 25 28 31 31 31 29 30 30
22 22 22 23 23 21 20 20 20 20 20 20 20 20 19 20 21 21 20 19 18 19 20 21 22 22 26 29 29 26 30 29 26 28 27 29 30 32
22 22 22 22 21 21 20 21 20 20 20 20 20 20 20 21 21 21 20 19 18 18 18 17 18 22 23 25 29 31 33 28 28 26 29 32 32 33
22 23 22 21 21 21 20 20 20 20 19 20 20 21 20 21 21 20 21 21 19 18 15 14 13 14 18 18 23 30 29 29 29 31 32 32 32 29
22 23 22 22 22 22 21 21 21 20 20 20 21 22 22 22 21 20 19 18 16 17 13 15 17 17 18 15 20 22 27 28 28 32 35 38 35 33
22 22 22 22 22 22 22 22 21 21 20 21 22 22 22 22 21 19 18 16 17 19 19 20 21 23 26 19 9 14 21 22 24 30 36 40 40 33
21 22 22 23 23 22 22 22 22 20 20 21 22 21 21 20 20 19 18 17 19 23 24 25 25 23 24 23 21 18 14 21 24 27 35 36 42 40
22 22 22 22 23 22 22 21 22 21 20 21 21 21 21 21 20 19 19 19 20 26 28 27 26 24 23 24 24 23 20 19 19 18 36 39 38 42
22 23 23 23 23 23 22 21 22 22 21 21 21 21 21 20 20 20 20 20 20 25 30 31 29 29 29 30 31 27 26 20 18 17 26 40 44 43
23 24 24 23 23 22 22 21 21 21 22 22 22 21 21 20 21 22 22 22 22 23 29 33 34 33 32 31 33 34 35 31 25 19 15 16 44 42
22 21 23 22 21 22 22 22 23 22 22 22 22 22 22 22 22 23 24 23 24 27 29 34 35 33 33 33 36 39 40 38 35 32 24 26 33 44
Wind_Direction
324 323 322 322 320 319 316 311 304 303 301 302 299 298 301 297 289 294 291 294 298 297 300 300 295 291 306 307 308 310 309 308 308 308 308 306 306 304
327 326 327 327 328 331 327 321 315 308 302 304 301 300 296 308 292 297 298 294 299 299 299 299 307 309 311 310 308 306 307 307 307 309 309 308 307 306
334 334 335 336 341 344 348 339 333 323 314 314 312 307 302 298 301 303 302 309 298 302 306 311 314 313 311 310 310 310 310 311 311 310 309 309 307 306
340 342 343 345 349 353 356 353 342 339 334 324 321 313 304 300 312 312 304 305 312 316 317 314 315 313 313 313 313 313 312 311 310 310 308 309 308 307
353 354 353 352 356 360 359 359 356 356 356 348 320 321 320 329 316 319 319 315 314 321 321 318 317 315 315 312 312 313 313 313 313 313 313 312 311 309
5 0 2 2 5 6 7 6 10 5 5 344 349 347 337 332 332 323 319 320 321 325 324 320 315 314 315 316 315 316 316 315 315 316 316 315 314 313
11 8 8 11 12 10 14 13 9 6 3 0 349 348 343 342 343 341 332 329 326 323 319 320 322 318 315 317 318 317 317 318 320 321 319 318 317 316
19 13 9 5 8 9 9 13 9 11 15 14 3 351 348 346 345 338 332 326 320 328 324 318 320 319 321 320 320 319 319 319 320 321 322 322 320 318
16 11 7 5 5 2 4 5 3 2 1 360 355 349 344 342 339 334 330 327 325 328 326 321 327 322 325 323 320 318 318 320 323 326 326 324 321 318
10 9 9 4 5 4 4 2 0 360 0 359 356 352 347 343 339 336 334 331 328 327 330 322 327 322 323 323 324 325 328 326 324 324 323 323 320 318
9 7 4 359 359 358 356 356 359 360 358 357 356 352 349 347 345 342 336 333 330 332 336 328 327 324 324 322 323 324 324 322 323 323 323 319 317 316
3 2 2 0 358 357 358 358 356 357 354 353 352 352 352 351 349 347 343 335 334 331 336 328 327 329 323 323 320 318 320 322 322 321 319 320 320 320
5 2 1 356 354 356 360 2 0 360 357 356 357 357 356 356 354 352 350 343 334 328 329 328 324 323 321 318 318 320 323 322 320 323 322 324 323 322
2 1 360 358 358 0 2 1 1 1 1 359 357 356 354 351 349 348 345 341 338 328 324 322 321 319 316 314 316 321 320 322 325 325 326 326 324 320
360 358 356 358 360 1 1 359 2 0 359 357 355 352 351 350 349 348 347 347 343 336 331 325 320 319 318 316 315 317 319 325 323 324 325 322 322 321
357 355 357 357 359 358 359 358 359 358 357 355 353 350 351 351 349 349 346 346 346 345 346 340 332 328 325 321 321 318 320 320 322 321 321 321 322 323
354 353 354 353 353 354 355 355 356 354 353 352 350 347 346 347 347 349 347 350 348 347 351 347 336 330 327 321 322 323 323 323 322 320 316 312 317 320
353 351 350 350 349 349 350 350 351 351 350 348 344 343 343 344 345 347 348 347 342 340 338 338 335 331 328 328 297 323 329 329 329 324 312 303 305 319
350 349 348 346 346 346 346 346 346 347 347 344 342 342 342 342 343 343 344 342 337 332 330 329 328 331 329 328 331 330 326 334 332 328 316 311 299 308
348 347 345 343 342 342 342 342 342 342 342 340 339 340 340 339 339 338 338 337 334 328 324 324 322 324 325 326 327 326 328 327 330 329 317 310 308 301
343 343 342 341 340 339 339 338 338 337 337 337 336 335 336 336 334 333 333 332 330 327 320 319 320 318 318 319 319 323 328 328 324 323 328 310 298 298
339 339 340 340 339 338 337 336 334 334 333 332 331 332 332 330 330 330 329 327 326 324 319 316 316 316 315 314 315 317 320 325 327 322 310 305 295 299
338 339 339 339 339 337 336 334 332 330 330 330 329 329 329 326 327 326 325 323 322 320 319 315 314 314 313 313 312 312 313 317 320 323 324 324 317 278